Terminal Aerodrome Forecast
Issued by NWS Louisville, KY

Home | Current Version | Previous Version | Text Only | Print | Product List | Glossary On
Versions: 1 2 3 4 5 6 7 8 9 10 11 12 13 14 15 16 17 18 19
000
FTUS43 KLMK 221700
TAFLEX
TAF
KLEX 221731Z 2218/2318 22005KT P6SM SCT040
     FM231000 19004KT 6SM BR SCT250
     FM231300 25007KT P6SM SCT050=

USA.gov is the U.S. government's official web portal to all federal, state and local government web resources and services.